Altus, OK

12:50 PM CDT on May 27, 2017 (GMT -0500)
Altus Municipal

Weather History for KAXS - May, 2014

Change the Weather History Date:

Sunday, May 18, 2014

  Actual Average (KLTS) Record (KLTS)
Temperature  
Mean Temperature 74 °F -  
Max Temperature 90 °F 83 °F 99 °F (2013)
Min Temperature 58 °F 59 °F 51 °F (2007)
Cooling Degree Days 9    
Growing Degree Days 24 (Base 50)    
Moisture  
Dew Point 53 °F    
Average Humidity 53    
Maximum Humidity 84    
Minimum Humidity 24    
Precipitation  
Precipitation 0.00 in - - ()
Sea Level Pressure  
Sea Level Pressure 29.98 in    
Wind  
Wind Speed 14 mph (SE)    
Max Wind Speed 26 mph    
Max Gust Speed 36 mph    
Visibility 10 miles    
Events      
Averages and records for this station are not official NWS values.
T = Trace of Precipitation, MM = Missing Value Source: NWS Daily Summary

Daily Weather History Graph

Daily Weather History Graph

Search for Another Location

Airport or City:

Trip Planner

Search our weather history database for the weather conditions in past years. The results will help you decide how hot, cold, wet, or windy it might be!

Date:

Astronomy

May. 18, 2014 Rise Set
Actual Time 6:32 AM CDT 8:35 PM CDT
Civil Twilight 6:04 AM CDT 9:03 PM CDT
Nautical Twilight 5:29 AM CDT 9:38 PM CDT
Astronomical Twilight 4:53 AM CDT 10:15 PM CDT
Moon No Moon Rise 10:21 AM CDT (5/18)
Length of Visible Light 14h 59m
Length of Day
14h 03m
Waning Gibbous, 81% of the Moon is Illuminated
May 18
Waning Gibbous
May 21
Last Quarter
May 28
New
Jun 5
First Quarter
Jun 12
Full

Hourly Weather History & Observations

Time (CDT) Temp. Heat Index Dew Point Humidity Pressure Visibility Wind Dir Wind Speed Gust Speed Precip Events Conditions
12:15 AM 62.6 °F - 52.2 °F 69% 30.10 in 10.0 mi East 10.4 mph - N/A   Clear
12:35 AM 62.4 °F - 52.0 °F 69% 30.09 in 10.0 mi East 9.2 mph - N/A   Clear
12:55 AM 62.2 °F - 52.0 °F 69% 30.11 in 10.0 mi ENE 8.1 mph - N/A   Clear
1:15 AM 61.9 °F - 51.8 °F 69% 30.10 in 10.0 mi East 9.2 mph - N/A   Clear
2:00 AM 61.3 °F - 51.8 °F 71% 30.09 in 10.0 mi ENE 10.4 mph - N/A   Clear
2:15 AM 61.0 °F - 51.8 °F 72% 30.07 in 10.0 mi East 10.4 mph - N/A   Clear
2:35 AM 60.4 °F - 51.8 °F 73% 30.07 in 10.0 mi East 9.2 mph - N/A   Clear
2:55 AM 59.9 °F - 51.8 °F 75% 30.04 in 10.0 mi ESE 11.5 mph - N/A   Clear
3:15 AM 59.0 °F - 51.3 °F 75% 30.02 in 10.0 mi ESE 9.2 mph - N/A   Clear
3:35 AM 59.4 °F - 51.4 °F 75% 30.03 in 10.0 mi East 10.4 mph - N/A   Clear
3:55 AM 59.9 °F - 51.8 °F 75% 30.03 in 10.0 mi ESE 11.5 mph - N/A   Clear
4:15 AM 59.9 °F - 52.2 °F 76% 30.03 in 10.0 mi ESE 13.8 mph - N/A   Clear
4:35 AM 59.9 °F - 52.7 °F 77% 30.03 in 10.0 mi ESE 13.8 mph - N/A   Clear
4:55 AM 59.9 °F - 52.7 °F 77% 30.02 in 10.0 mi SE 15.0 mph - N/A   Clear
5:15 AM 59.7 °F - 52.7 °F 78% 30.04 in 10.0 mi ESE 10.4 mph - N/A   Clear
5:35 AM 59.4 °F - 52.9 °F 79% 30.00 in 10.0 mi SE 17.3 mph - N/A   Clear
6:00 AM 59.2 °F - 53.2 °F 81% 30.01 in 10.0 mi ESE 15.0 mph - N/A   Clear
6:15 AM 58.6 °F - 53.1 °F 82% 30.02 in 10.0 mi ESE 16.1 mph - N/A   Clear
6:40 AM 58.6 °F - 53.6 °F 83% 30.03 in 10.0 mi East 13.8 mph 18.4 mph N/A   Clear
6:55 AM 58.6 °F - 53.6 °F 83% 30.04 in 10.0 mi East 12.7 mph - N/A   Scattered Clouds
7:15 AM 58.5 °F - 53.8 °F 84% 30.03 in 10.0 mi ESE 11.5 mph - N/A   Scattered Clouds
7:35 AM 59.2 °F - 54.1 °F 83% 30.05 in 10.0 mi ESE 10.4 mph - N/A   Mostly Cloudy
7:55 AM 60.1 °F - 54.5 °F 82% 30.05 in 10.0 mi ESE 11.5 mph - N/A   Mostly Cloudy
8:15 AM 60.6 °F - 54.7 °F 81% 30.06 in 10.0 mi ESE 11.5 mph - N/A   Scattered Clouds
8:40 AM 62.6 °F - 54.9 °F 76% 30.06 in 10.0 mi East 12.7 mph - N/A   Scattered Clouds
8:55 AM 62.2 °F - 54.7 °F 76% 30.07 in 10.0 mi ESE 12.7 mph - N/A   Scattered Clouds
9:15 AM 65.1 °F - 55.2 °F 70% 30.07 in 10.0 mi ESE 13.8 mph - N/A   Clear
9:35 AM 66.4 °F - 55.0 °F 67% 30.07 in 10.0 mi ESE 12.7 mph - N/A   Clear
9:55 AM 68.0 °F - 55.2 °F 64% 30.08 in 10.0 mi ESE 12.7 mph 17.3 mph N/A   Clear
10:15 AM 69.4 °F - 55.4 °F 61% 30.08 in 10.0 mi SE 10.4 mph - N/A   Scattered Clouds
10:35 AM 70.5 °F - 55.6 °F 59% 30.07 in 10.0 mi SSE 10.4 mph 18.4 mph N/A   Scattered Clouds
10:55 AM 71.8 °F - 55.8 °F 57% 30.06 in 10.0 mi SSE 9.2 mph - N/A   Clear
11:15 AM 72.7 °F - 55.9 °F 56% 30.05 in 10.0 mi SE 9.2 mph - N/A   Clear
11:35 AM 74.3 °F - 55.9 °F 53% 30.06 in 10.0 mi SSE 8.1 mph - N/A   Clear
11:55 AM 75.7 °F - 56.1 °F 50% 30.05 in 10.0 mi SE 9.2 mph - N/A   Clear
12:15 PM 77.2 °F - 55.9 °F 48% 30.04 in 10.0 mi SE 5.8 mph 10.4 mph N/A   Clear
12:35 PM 78.3 °F - 55.8 °F 46% 30.03 in 10.0 mi SE 13.8 mph 17.3 mph N/A   Clear
12:55 PM 80.4 °F 80.4 °F 55.6 °F 42% 30.01 in 10.0 mi ESE 13.8 mph 20.7 mph N/A   Clear
1:15 PM 82.0 °F 81.4 °F 54.5 °F 39% 30.00 in 10.0 mi SE 12.7 mph 23.0 mph N/A   Clear
1:35 PM 83.1 °F 82.1 °F 54.3 °F 37% 29.99 in 10.0 mi SSE 19.6 mph 25.3 mph N/A   Clear
1:55 PM 84.2 °F 82.8 °F 54.1 °F 35% 29.98 in 10.0 mi SE 17.3 mph 21.9 mph N/A   Clear
2:15 PM 86.2 °F 84.4 °F 54.3 °F 33% 29.96 in 10.0 mi SSE 17.3 mph 23.0 mph N/A   Clear
2:35 PM 87.4 °F 85.5 °F 54.1 °F 32% 29.95 in 10.0 mi SSE 19.6 mph 25.3 mph N/A   Clear
2:55 PM 88.0 °F 85.9 °F 54.1 °F 31% 29.94 in 10.0 mi SE 20.7 mph 28.8 mph N/A   Clear
3:15 PM 90.0 °F - 52.7 °F 28% 29.93 in 10.0 mi SSE 23.0 mph 28.8 mph N/A   Clear
3:35 PM 90.0 °F - 52.2 °F 27% 29.92 in 10.0 mi SSE 23.0 mph 29.9 mph N/A   Clear
3:55 PM 89.6 °F - 51.3 °F 27% 29.91 in 10.0 mi SSE 20.7 mph 28.8 mph N/A   Clear
4:15 PM 90.9 °F - 50.9 °F 25% 29.90 in 10.0 mi SSE 21.9 mph 29.9 mph N/A   Clear
4:35 PM 90.3 °F - 50.5 °F 26% 29.89 in 10.0 mi SSE 25.3 mph 34.5 mph N/A   Clear
4:55 PM 90.7 °F - 49.1 °F 24% 29.88 in 10.0 mi SE 24.2 mph 33.4 mph N/A   Clear
5:15 PM 90.5 °F - 49.8 °F 25% 29.87 in 10.0 mi SSE 26.5 mph 32.2 mph N/A   Clear
5:35 PM 89.6 °F - 50.4 °F 26% 29.87 in 10.0 mi SE 25.3 mph 35.7 mph N/A   Clear
5:55 PM 89.2 °F - 50.2 °F 26% 29.87 in 10.0 mi SSE 26.5 mph 32.2 mph N/A   Clear
6:15 PM 89.2 °F - 50.0 °F 26% 29.87 in 10.0 mi SE 26.5 mph 33.4 mph N/A   Clear
6:35 PM 87.3 °F - 49.5 °F 27% 29.86 in 10.0 mi SSE 26.5 mph 34.5 mph N/A   Clear
7:00 PM 86.9 °F - 49.3 °F 27% 29.86 in 10.0 mi SSE 23.0 mph 32.2 mph N/A   Clear
7:15 PM 87.1 °F - 48.9 °F 27% 29.86 in 10.0 mi SSE 23.0 mph 27.6 mph N/A   Clear
7:35 PM 85.5 °F - 49.3 °F 28% 29.86 in 10.0 mi SSE 16.1 mph 27.6 mph N/A   Clear
8:00 PM 84.7 °F - 49.1 °F 29% 29.87 in 10.0 mi SSE 16.1 mph 24.2 mph N/A   Clear
8:15 PM 83.5 °F - 49.6 °F 31% 29.87 in 10.0 mi SE 17.3 mph - N/A   Clear
8:35 PM 82.4 °F - 50.0 °F 32% 29.87 in 10.0 mi SE 18.4 mph 26.5 mph N/A   Clear
9:00 PM 81.3 °F - 50.2 °F 34% 29.86 in 10.0 mi SE 21.9 mph 26.5 mph N/A   Clear
9:15 PM 80.6 °F - 50.9 °F 35% 29.87 in 10.0 mi SE 20.7 mph - N/A   Clear
9:40 PM 79.3 °F - 53.8 °F 41% 29.87 in 10.0 mi SE 23.0 mph 28.8 mph N/A   Clear
9:55 PM 79.0 °F - 54.1 °F 42% 29.87 in 10.0 mi SE 20.7 mph 28.8 mph N/A   Clear
10:15 PM 78.3 °F - 54.3 °F 43% 29.88 in 10.0 mi SE 23.0 mph 28.8 mph N/A   Clear
10:40 PM 77.4 °F - 54.3 °F 45% 29.88 in 10.0 mi SE 20.7 mph 33.4 mph N/A   Clear
10:55 PM 77.0 °F - 54.1 °F 45% 29.88 in 10.0 mi SE 24.2 mph 31.1 mph N/A   Clear
11:15 PM 76.3 °F - 54.5 °F 47% 29.88 in 10.0 mi SE 20.7 mph 27.6 mph N/A   Clear
11:35 PM 75.6 °F - 54.7 °F 48% 29.88 in 10.0 mi SE 21.9 mph 28.8 mph N/A   Clear
11:55 PM 74.8 °F - 54.7 °F 49% 29.88 in 10.0 mi SE 20.7 mph 25.3 mph N/A   Clear